Location: Newark
(44.6028°N, 124.0883°W)
Time: 14:00:32
(UTC+00:00)

deb Explorer IX - Visible Passes

Search period start: 16 October 2019 00:00
Search period end: 26 October 2019 00:00
Orbit: 544 x 1107 km, 38.8° (Epoch: 15 October)

Date Brightness Start Highest point End Pass type
(mag) Time Alt. Az. Time Alt. Az. Time Alt. Az.
16 Oct ? 02:58:45 10° W 03:05:21 44° SSW 03:10:17 19° SE visible
16 Oct ? 04:46:38 10° W 04:51:40 22° SW 04:51:40 22° SW visible
17 Oct ? 02:36:50 10° W 02:43:18 44° SSW 02:49:41 12° SE visible
17 Oct ? 04:24:42 10° W 04:29:56 22° SSW 04:31:04 21° SSW visible
18 Oct ? 02:14:56 10° W 02:21:16 43° SSW 02:28:05 10° SE visible
18 Oct ? 04:02:46 10° WSW 04:07:53 21° SSW 04:10:35 17° S visible
19 Oct ? 01:53:03 10° W 01:59:14 42° SSW 02:05:59 10° SE visible
19 Oct ? 03:40:52 10° WSW 03:45:52 21° SSW 03:50:13 12° S visible
20 Oct ? 03:19:00 10° WSW 03:23:50 20° SSW 03:28:51 10° SSE visible
21 Oct ? 02:57:10 10° WSW 03:01:49 19° SSW 03:06:41 10° S visible
22 Oct ? 02:35:21 10° WSW 02:39:48 19° SSW 02:44:30 10° S visible
23 Oct ? 02:13:34 10° WSW 02:17:48 18° SSW 02:22:17 10° S visible
24 Oct ? 01:51:49 10° WSW 01:55:49 17° SSW 02:00:03 10° S visible
